#timestamp,LO_Frequency,Hit,StdDev 
1532030415.5,286047000.4,N
1532030435.3,286047000.7,N
1532030455.1,286047000.4,N
1532030475.9,286047001.2,N
1532030495.7,286046999.0,N
1532030515.5,286047000.7,N
1532030535.4,286047000.9,N
1532030555.2,286046999.2,N
1532030575.1,286046998.5,N
1532030576.0,286046998.5,N
1532030595.8,286046998.6,N
1532030615.6,286046998.3,N
1532030635.5,286046999.3,N
1532030655.3,286046998.3,N
1532030675.1,286046998.1,N
1532030695.9,286046998.4,N
1532030715.7,286047000.7,N
1532030735.6,286047000.6,N
1532030755.4,286047000.9,N
1532030775.2,286047000.5,N
1532030795.1,286047000.4,N
1532030796.0,286047000.4,N
1532030815.8,286047000.5,N
1532030835.7,286047001.1,N
1532030855.5,286047000.5,N
1532030875.4,286047001.0,N
1532030895.2,286047000.4,N
1532030915.0,286047000.8,N
1532030915.9,286047000.8,N
1532030935.8,286047000.6,N
1532030955.6,286047000.9,N
1532030975.4,286047000.7,N
1532030995.3,286046999.8,N
1532031015.1,286047000.5,N
1532031035.9,286047002.4,N
1532031055.7,286047002.8,N
1532031075.5,286047000.3,N
1532031095.4,286047002.4,N
1532031115.2,286047002.4,N
1532031135.0,286047002.5,N
1532031135.9,286047002.5,N
1532031155.8,286047001.8,N
1532031175.6,286047002.5,N
1532031195.5,286047001.7,N
1532031215.3,286047001.7,N
1532031235.1,286047001.4,N
1532031255.9,286047004.0,Y
1532031275.7,286047002.5,P
1532031295.5,286046999.8,N
1532031315.4,286047002.7,N
1532031335.2,286047002.2,N
1532031355.1,286046999.7,N
1532031356.0,286046999.7,N
1532031375.8,286047000.9,N
1532031395.6,286047002.3,N
1532031415.5,286047002.3,N
1532031435.3,286047003.9,Y
1532031455.1,286047002.6,P
1532031475.9,286047002.6,P
1532031495.7,286047000.3,N
1532031515.6,286047001.1,N
1532031535.8,286046998.4,N
1532031555.6,286047001.1,N
1532031575.5,286046998.3,N
1532031595.3,286047001.1,N
1532031615.1,286047000.4,N
1532031635.9,286047001.2,N
1532031655.7,286046999.3,N
1532031675.6,286046999.5,N
1532031695.4,286046996.8,N
1532031715.2,286046997.0,N
1532031735.1,286046996.7,N
1532031736.0,286046996.7,N
1532031755.8,286046997.2,N
1532031775.6,286046999.1,N
1532031795.5,286046998.4,N
1532031815.3,286046998.9,N
1532031835.2,286047001.2,N
1532031855.9,286046998.8,N
1532031875.7,286046998.4,N
1532031895.6,286046997.0,N
1532031915.4,286046997.7,N
1532031935.2,286046997.6,N
1532031955.1,286046997.4,N
1532031956.0,286046997.4,N
1532031975.8,286046997.0,N
1532031995.7,286046997.6,N
1532032015.5,286046997.5,N
1532032035.3,286046995.4,N
1532032055.2,286046996.1,N
1532032075.0,286046996.4,N
1532032075.9,286046996.4,N
1532032095.8,286046995.9,N
1532032115.6,286046996.0,N
1532032135.4,286046995.9,N
1532032155.3,286046996.0,N
1532032175.1,286046996.4,N
1532032195.8,286046996.4,N
1532032215.7,286046995.5,Y
1532032235.5,286046996.7,P
1532032255.4,286046999.5,N
1532032275.2,286046996.6,N
1532032295.0,286046997.0,N
1532032295.9,286046997.0,N
1532032315.8,286046995.3,Y
1532032335.6,286046999.7,P
1532032355.5,286047000.7,N
1532032375.3,286046998.6,N
1532032395.1,286047001.2,N
1532032415.9,286047000.8,N
1532032435.7,286047000.9,N
1532032455.5,286047002.8,N
1532032475.4,286047000.3,N
1532032495.2,286047001.2,N
1532032515.1,286047000.6,N
1532032516.0,286047000.6,N
1532032535.8,286047002.4,N
1532032555.6,286047001.0,N
1532032575.5,286047000.8,N
1532032595.3,286047002.6,N
1532032615.1,286047000.2,N
1532032635.9,286047000.3,N
1532032655.7,286047001.1,N
1532032675.6,286047000.7,N
1532032695.4,286046998.1,N
1532032715.2,286047000.5,N
1532032735.1,286046998.6,N
1532032736.0,286046998.6,N
1532032755.8,286046998.6,N
1532032775.6,286047001.1,N
1532032795.5,286046998.2,N
1532032815.3,286046999.1,N
1532032835.2,286046999.4,N
1532032855.0,286046999.3,N
1532032855.9,286046999.3,N
1532032875.7,286046998.3,N
1532032895.6,286047000.8,N
1532032915.4,286046998.5,N
1532032935.3,286046998.6,N
1532032955.1,286046999.0,N
1532032975.8,286046999.4,N
1532032995.7,286046996.5,N
1532033015.5,286046996.8,N
1532033035.4,286046996.5,N
1532033055.2,286046997.2,N
1532033075.0,286046997.4,N
1532033075.9,286046997.4,N
1532033095.8,286046996.8,N
1532033115.6,286046997.2,N
1532033135.4,286046997.7,N
1532033155.3,286046996.8,N
1532033175.1,286046996.9,N
1532033195.9,286046998.1,N
1532033215.7,286046999.1,N
1532033235.5,286046996.7,N
1532033255.4,286046997.7,N
1532033275.2,286046996.9,N
1532033295.0,286046997.1,N
1532033295.9,286046997.1,N
1532033315.8,286046997.4,N
1532033335.6,286046997.0,N
1532033355.5,286046996.5,Y
1532033375.3,286046998.5,P
1532033395.1,286046999.5,N
1532033415.9,286046998.1,N
1532033435.7,286046998.1,Y
1532033455.6,286046999.7,P
1532033475.4,286047002.6,P
1532033495.2,286046999.9,N
1532033515.1,286047000.1,N
1532033516.0,286047000.1,N
1532033535.8,286047001.0,N
1532033555.6,286047000.4,N
1532033575.5,286047000.4,N
1532033595.3,286047000.0,N
1532033615.2,286047000.2,N
1532033635.9,286047000.0,N
1532033655.7,286047000.2,N
1532033675.6,286046999.9,N
1532033695.4,286047002.7,Y
1532033715.2,286047002.8,P
1532033735.1,286047002.3,N
1532033736.0,286047002.3,N
1532033755.8,286047000.7,N
1532033775.7,286046998.5,N
1532033795.5,286046998.4,N
1532033815.3,286047001.1,N
1532033835.2,286047001.0,N
1532033855.0,286046998.5,N
1532033875.4,286047001.2,N
1532033895.2,286046998.3,N
1532033915.0,286046999.1,N
1532033915.9,286046999.1,N
1532033935.8,286046999.0,N
1532033955.6,286046998.3,N
1532033975.5,286046999.2,N
1532033995.3,286046999.5,N
